| time (UTC) | temp F | wind direction | speed MPH | gust MPH | rain 1hr in | rain 24hr in | rain mn in | humidity % | barometer mb |
| 20260506173402 | 57 | 228 | 1.0 | 2.0 | 0.00 | 0.00 | 0.00 | 87 | 1024.0 |
| 20260506172859 | 57 | 282 | 4.0 | 5.0 | 0.00 | 0.00 | 0.00 | 86 | 1024.0 |
| 20260506172355 | 57 | 231 | 2.0 | 2.0 | 0.00 | 0.00 | 0.00 | 86 | 1024.0 |
| 20260506171853 | 57 | 222 | 1.0 | 1.0 | 0.00 | 0.00 | 0.00 | 86 | 1024.0 |
| 20260506171350 | 57 | 256 | 3.0 | 5.0 | 0.00 | 0.00 | 0.00 | 86 | 1024.0 |
| 20260506170848 | 57 | 245 | 2.0 | 2.0 | 0.00 | 0.00 | 0.00 | 86 | 1023.7 |
| 20260506170343 | 56 | 210 | 2.0 | 3.0 | 0.00 | 0.00 | 0.00 | 88 | 1024.0 |
| 20260506165837 | 57 | 227 | 3.0 | 5.0 | 0.00 | 0.00 | 0.00 | 86 | 1023.7 |
| 20260506165334 | 57 | 214 | 0.0 | 0.0 | 0.00 | 0.00 | 0.00 | 86 | 1024.0 |
| 20260506164830 | 57 | 221 | 0.0 | 1.0 | 0.00 | 0.00 | 0.00 | 87 | 1024.0 |
| 20260506164327 | 56 | 214 | 1.0 | 1.0 | 0.00 | 0.00 | 0.00 | 88 | 1023.7 |
| 20260506163825 | 56 | 201 | 0.0 | 1.0 | 0.00 | 0.00 | 0.00 | 88 | 1023.7 |
| 20260506163320 | 55 | 206 | 2.0 | 2.0 | 0.00 | 0.00 | 0.00 | 89 | 1024.0 |
| 20260506162815 | 55 | 197 | 3.0 | 5.0 | 0.00 | 0.00 | 0.00 | 90 | 1023.7 |
| 20260506162313 | 55 | 225 | 3.0 | 5.0 | 0.00 | 0.00 | 0.00 | 89 | 1024.0 |
| 20260506161810 | 55 | 205 | 0.0 | 0.0 | 0.00 | 0.00 | 0.00 | 89 | 1023.7 |
| 20260506161308 | 55 | 190 | 2.0 | 3.0 | 0.00 | 0.00 | 0.00 | 89 | 1023.7 |
| 20260506160800 | 55 | 203 | 2.0 | 2.0 | 0.00 | 0.00 | 0.00 | 89 | 1023.7 |
| 20260506160256 | 55 | 200 | 1.0 | 2.0 | 0.00 | 0.00 | 0.00 | 90 | 1023.3 |
| 20260506155755 | 54 | 182 | 3.0 | 3.0 | 0.00 | 0.00 | 0.00 | 90 | 1023.3 |
| 20260506155251 | 54 | 204 | 1.0 | 1.0 | 0.00 | 0.00 | 0.00 | 91 | 1023.3 |
| 20260506153403 | 54 | 220 | 0.0 | 1.0 | 0.00 | 0.00 | 0.00 | 91 | 1023.7 |
| 20260506152900 | 54 | 221 | 0.0 | 0.0 | 0.00 | 0.00 | 0.00 | 91 | 1024.0 |
| 20260506152358 | 54 | 259 | 1.0 | 2.0 | 0.00 | 0.00 | 0.00 | 91 | 1023.7 |
| 20260506151856 | 54 | 220 | 0.0 | 1.0 | 0.00 | 0.00 | 0.00 | 90 | 1023.7 |
| 20260506151353 | 54 | 199 | 1.0 | 1.0 | 0.00 | 0.00 | 0.00 | 90 | 1024.0 |
| 20260506150850 | 54 | 234 | 1.0 | 2.0 | 0.00 | 0.00 | 0.00 | 90 | 1024.0 |
| 20260506150346 | 54 | 231 | 4.0 | 7.0 | 0.00 | 0.00 | 0.00 | 89 | 1024.0 |
| 20260506145843 | 54 | 246 | 5.0 | 6.0 | 0.00 | 0.00 | 0.00 | 89 | 1024.0 |
| 20260506145340 | 54 | 232 | 5.0 | 7.0 | 0.00 | 0.00 | 0.00 | 89 | 1024.0 |
| 20260506144837 | 54 | 231 | 1.0 | 2.0 | 0.00 | 0.00 | 0.00 | 89 | 1023.7 |
| 20260506144333 | 54 | 211 | 0.0 | 0.0 | 0.00 | 0.00 | 0.00 | 89 | 1023.3 |
| 20260506143832 | 54 | 253 | 0.0 | 1.0 | 0.00 | 0.00 | 0.00 | 89 | 1023.3 |
| 20260506143329 | 54 | 222 | 1.0 | 1.0 | 0.00 | 0.00 | 0.00 | 90 | 1023.0 |
| 20260506142827 | 54 | 218 | 0.0 | 1.0 | 0.00 | 0.00 | 0.00 | 90 | 1023.0 |
| 20260506142325 | 54 | 203 | 0.0 | 1.0 | 0.00 | 0.00 | 0.00 | 91 | 1023.0 |
| 20260506141823 | 54 | 209 | 2.0 | 2.0 | 0.00 | 0.00 | 0.00 | 92 | 1023.0 |
| 20260506141321 | 53 | 199 | 2.0 | 2.0 | 0.00 | 0.00 | 0.00 | 93 | 1022.6 |
| 20260506140818 | 53 | 208 | 1.0 | 1.0 | 0.00 | 0.00 | 0.00 | 94 | 1022.6 |
| 20260506140315 | 53 | 205 | 2.0 | 2.0 | 0.00 | 0.00 | 0.00 | 94 | 1022.6 |
| 20260506135812 | 53 | 201 | 0.0 | 0.0 | 0.00 | 0.00 | 0.00 | 95 | 1022.6 |
| 20260506135308 | 53 | 186 | 1.0 | 1.0 | 0.00 | 0.00 | 0.00 | 95 | 1022.6 |
| 20260506134805 | 53 | 183 | 2.0 | 2.0 | 0.00 | 0.00 | 0.00 | 95 | 1022.6 |
| 20260506134301 | 53 | 192 | 1.0 | 2.0 | 0.00 | 0.00 | 0.00 | 95 | 1022.6 |
| 20260506133759 | 53 | 195 | 1.0 | 1.0 | 0.00 | 0.00 | 0.00 | 94 | 1023.0 |
| 20260506133255 | 53 | 193 | 1.0 | 1.0 | 0.00 | 0.00 | 0.00 | 94 | 1022.6 |
| 20260506132752 | 53 | 207 | 1.0 | 1.0 | 0.00 | 0.00 | 0.00 | 94 | 1022.6 |
| 20260506132249 | 53 | 195 | 1.0 | 1.0 | 0.00 | 0.00 | 0.00 | 93 | 1022.6 |
| 20260506131747 | 53 | 220 | 1.0 | 1.0 | 0.00 | 0.00 | 0.00 | 93 | 1022.3 |
| 20260506131243 | 53 | 208 | 0.0 | 0.0 | 0.00 | 0.00 | 0.00 | 92 | 1022.6 |
| 20260506130740 | 54 | 206 | 0.0 | 0.0 | 0.00 | 0.00 | 0.00 | 92 | 1022.3 |
| 20260506130237 | 54 | 202 | 2.0 | 2.0 | 0.00 | 0.00 | 0.00 | 92 | 1022.3 |
| 20260506125735 | 54 | 208 | 0.0 | 1.0 | 0.00 | 0.00 | 0.00 | 91 | 1022.3 |
| 20260506125233 | 54 | 218 | 1.0 | 1.0 | 0.00 | 0.00 | 0.00 | 91 | 1022.3 |
| 20260506124731 | 54 | 191 | 1.0 | 1.0 | 0.00 | 0.00 | 0.00 | 91 | 1022.0 |
| 20260506124228 | 54 | 220 | 2.0 | 2.0 | 0.00 | 0.00 | 0.00 | 91 | 1022.3 |
| 20260506123725 | 54 | 201 | 1.0 | 1.0 | 0.00 | 0.00 | 0.00 | 92 | 1022.3 |
| 20260506123224 | 54 | 215 | 0.0 | 1.0 | 0.00 | 0.00 | 0.00 | 93 | 1022.3 |
| 20260506122720 | 54 | 216 | 0.0 | 0.0 | 0.00 | 0.00 | 0.00 | 93 | 1022.6 |
| 20260506122218 | 54 | 207 | 0.0 | 0.0 | 0.00 | 0.00 | 0.00 | 93 | 1022.6 |
| 20260506121716 | 54 | 209 | 0.0 | 0.0 | 0.00 | 0.00 | 0.00 | 93 | 1022.3 |
| 20260506121212 | 54 | 203 | 1.0 | 1.0 | 0.00 | 0.00 | 0.00 | 93 | 1022.3 |
| 20260506120710 | 54 | 201 | 1.0 | 1.0 | 0.00 | 0.00 | 0.00 | 94 | 1022.0 |
| 20260506120207 | 54 | 207 | 1.0 | 1.0 | 0.00 | 0.00 | 0.00 | 94 | 1022.3 |
| 20260506115705 | 54 | 206 | 0.0 | 0.0 | 0.00 | 0.00 | 0.00 | 94 | 1022.3 |
| 20260506115203 | 53 | 220 | 0.0 | 0.0 | 0.00 | 0.00 | 0.00 | 94 | 1022.0 |
| 20260506114700 | 53 | 220 | 0.0 | 0.0 | 0.00 | 0.00 | 0.00 | 94 | 1022.3 |
| 20260506114158 | 53 | 220 | 0.0 | 0.0 | 0.00 | 0.00 | 0.00 | 94 | 1022.0 |
| 20260506113656 | 53 | 220 | 0.0 | 0.0 | 0.00 | 0.00 | 0.00 | 94 | 1022.0 |
| 20260506113153 | 53 | 221 | 0.0 | 0.0 | 0.00 | 0.00 | 0.00 | 94 | 1022.0 |
| 20260506112649 | 53 | 221 | 0.0 | 0.0 | 0.00 | 0.00 | 0.00 | 94 | 1021.6 |
| 20260506112147 | 53 | 220 | 0.0 | 0.0 | 0.00 | 0.00 | 0.00 | 94 | 1021.6 |
| 20260506111644 | 53 | 212 | 0.0 | 0.0 | 0.00 | 0.00 | 0.00 | 94 | 1022.0 |
| 20260506111142 | 53 | 224 | 0.0 | 0.0 | 0.00 | 0.00 | 0.00 | 95 | 1021.6 |
| 20260506110639 | 53 | 224 | 0.0 | 1.0 | 0.00 | 0.00 | 0.00 | 94 | 1021.6 |
| 20260506110136 | 53 | 283 | 1.0 | 2.0 | 0.00 | 0.00 | 0.00 | 94 | 1021.6 |
| 20260506105633 | 53 | 254 | 1.0 | 2.0 | 0.00 | 0.00 | 0.00 | 94 | 1021.3 |
| 20260506105130 | 53 | 217 | 0.0 | 1.0 | 0.00 | 0.00 | 0.00 | 94 | 1021.3 |
| 20260506104628 | 53 | 221 | 1.0 | 1.0 | 0.00 | 0.00 | 0.00 | 94 | 1021.3 |
| 20260506104125 | 53 | 215 | 1.0 | 1.0 | 0.00 | 0.00 | 0.00 | 94 | 1021.3 |
| 20260506103623 | 53 | 228 | 1.0 | 1.0 | 0.00 | 0.00 | 0.00 | 94 | 1021.3 |
| 20260506103119 | 53 | 272 | 1.0 | 1.0 | 0.00 | 0.00 | 0.00 | 94 | 1020.9 |
| 20260506102618 | 53 | 239 | 1.0 | 2.0 | 0.00 | 0.00 | 0.00 | 94 | 1021.3 |
| 20260506102115 | 53 | 222 | 1.0 | 1.0 | 0.00 | 0.00 | 0.00 | 94 | 1020.9 |
| 20260506101611 | 53 | 229 | 1.0 | 2.0 | 0.00 | 0.00 | 0.00 | 94 | 1020.9 |
| 20260506101108 | 53 | 240 | 2.0 | 2.0 | 0.00 | 0.00 | 0.00 | 94 | 1020.9 |
| 20260506100607 | 53 | 236 | 1.0 | 2.0 | 0.00 | 0.00 | 0.00 | 94 | 1020.9 |
| 20260506100104 | 53 | 212 | 0.0 | 0.0 | 0.00 | 0.00 | 0.00 | 94 | 1020.9 |
| 20260506095603 | 53 | 210 | 0.0 | 0.0 | 0.00 | 0.00 | 0.00 | 93 | 1020.6 |
| 20260506095059 | 53 | 215 | 0.0 | 0.0 | 0.00 | 0.00 | 0.00 | 93 | 1020.6 |
| 20260506094556 | 54 | 212 | 0.0 | 0.0 | 0.00 | 0.00 | 0.00 | 93 | 1020.6 |
| 20260506094054 | 54 | 205 | 0.0 | 1.0 | 0.00 | 0.00 | 0.00 | 93 | 1020.6 |
| 20260506093552 | 54 | 214 | 0.0 | 0.0 | 0.00 | 0.00 | 0.00 | 92 | 1020.6 |
| 20260506093049 | 54 | 205 | 0.0 | 1.0 | 0.00 | 0.00 | 0.00 | 92 | 1020.9 |
| 20260506092548 | 54 | 212 | 0.0 | 0.0 | 0.00 | 0.00 | 0.00 | 92 | 1020.6 |
| 20260506092044 | 54 | 215 | 0.0 | 1.0 | 0.00 | 0.00 | 0.00 | 92 | 1020.6 |
| 20260506091542 | 54 | 208 | 0.0 | 0.0 | 0.00 | 0.00 | 0.00 | 92 | 1020.6 |
| 20260506091039 | 54 | 210 | 0.0 | 0.0 | 0.00 | 0.00 | 0.00 | 92 | 1020.3 |
| 20260506090537 | 54 | 214 | 0.0 | 1.0 | 0.00 | 0.00 | 0.00 | 91 | 1020.3 |
| 20260506090033 | 55 | 218 | 2.0 | 2.0 | 0.00 | 0.00 | 0.00 | 91 | 1020.6 |
| 20260506085530 | 55 | 210 | 0.0 | 0.0 | 0.00 | 0.00 | 0.00 | 91 | 1020.6 |
| 20260506085026 | 55 | 213 | 0.0 | 0.0 | 0.00 | 0.00 | 0.00 | 91 | 1020.3 |
| 20260506084524 | 55 | 207 | 0.0 | 0.0 | 0.00 | 0.00 | 0.00 | 91 | 1020.3 |
| 20260506084019 | 55 | 207 | 0.0 | 0.0 | 0.00 | 0.00 | 0.00 | 90 | 1020.3 |
| 20260506083517 | 55 | 221 | 2.0 | 2.0 | 0.00 | 0.00 | 0.00 | 90 | 1020.3 |
| 20260506083014 | 55 | 212 | 2.0 | 2.0 | 0.00 | 0.00 | 0.00 | 90 | 1020.3 |
| 20260506082511 | 55 | 211 | 0.0 | 0.0 | 0.00 | 0.00 | 0.00 | 89 | 1020.3 |
| 20260506082006 | 56 | 212 | 1.0 | 1.0 | 0.00 | 0.00 | 0.00 | 89 | 1020.3 |
| 20260506081505 | 56 | 199 | 0.0 | 0.0 | 0.00 | 0.00 | 0.00 | 88 | 1019.9 |
| 20260506081002 | 56 | 212 | 1.0 | 2.0 | 0.00 | 0.00 | 0.00 | 88 | 1020.3 |
| 20260506080459 | 57 | 221 | 0.0 | 0.0 | 0.00 | 0.00 | 0.00 | 87 | 1020.3 |
| 20260506073443 | 58 | 207 | 0.0 | 0.0 | 0.00 | 0.00 | 0.00 | 85 | 1019.9 |
| 20260506072940 | 58 | 215 | 1.0 | 1.0 | 0.00 | 0.00 | 0.00 | 85 | 1019.9 |
| 20260506072437 | 58 | 216 | 1.0 | 2.0 | 0.00 | 0.00 | 0.00 | 85 | 1020.3 |
| 20260506071935 | 58 | 213 | 0.0 | 0.0 | 0.00 | 0.00 | 0.00 | 84 | 1020.3 |
| 20260506071433 | 58 | 211 | 0.0 | 0.0 | 0.00 | 0.00 | 0.00 | 84 | 1020.3 |
| 20260506070929 | 58 | 228 | 1.0 | 1.0 | 0.00 | 0.00 | 0.00 | 84 | 1019.9 |
| 20260506070426 | 59 | 219 | 1.0 | 1.0 | 0.00 | 0.00 | 0.00 | 84 | 1019.9 |
| 20260506062404 | 59 | 209 | 0.0 | 0.0 | 0.00 | 0.00 | 0.00 | 83 | 1019.6 |
| 20260506061900 | 59 | 217 | 0.0 | 0.0 | 0.00 | 0.00 | 0.00 | 83 | 1019.6 |
| 20260506061356 | 59 | 214 | 0.0 | 0.0 | 0.00 | 0.00 | 0.00 | 83 | 1019.6 |
| 20260506060854 | 59 | 219 | 0.0 | 0.0 | 0.00 | 0.00 | 0.00 | 83 | 1019.6 |
| 20260506060352 | 60 | 226 | 1.0 | 1.0 | 0.00 | 0.00 | 0.00 | 82 | 1019.6 |
| 20260506051324 | 60 | 259 | 1.0 | 1.0 | 0.00 | 0.00 | 0.00 | 81 | 1019.6 |
| 20260506050822 | 60 | 240 | 1.0 | 1.0 | 0.00 | 0.00 | 0.00 | 81 | 1019.3 |
| 20260506050319 | 60 | 274 | 1.0 | 3.0 | 0.00 | 0.00 | 0.00 | 81 | 1019.3 |
| 20260506044809 | 62 | 285 | 4.0 | 5.0 | 0.00 | 0.00 | 0.00 | 80 | 1019.3 |
| 20260506044307 | 62 | 282 | 3.0 | 5.0 | 0.00 | 0.00 | 0.00 | 79 | 1019.3 |
| 20260506043804 | 62 | 226 | 1.0 | 1.0 | 0.00 | 0.00 | 0.00 | 79 | 1019.3 |
| 20260506043301 | 62 | 218 | 0.0 | 0.0 | 0.00 | 0.00 | 0.00 | 79 | 1019.3 |
| 20260506042801 | 63 | 206 | 0.0 | 0.0 | 0.00 | 0.00 | 0.00 | 78 | 1018.9 |
| 20260506042258 | 63 | 204 | 0.0 | 0.0 | 0.00 | 0.00 | 0.00 | 78 | 1018.9 |
| 20260506041757 | 63 | 207 | 0.0 | 0.0 | 0.00 | 0.00 | 0.00 | 77 | 1018.9 |
| 20260506041253 | 63 | 198 | 0.0 | 0.0 | 0.00 | 0.00 | 0.00 | 77 | 1018.6 |
| 20260506040750 | 63 | 208 | 0.0 | 0.0 | 0.00 | 0.00 | 0.00 | 77 | 1018.6 |
| 20260506040248 | 63 | 204 | 0.0 | 0.0 | 0.00 | 0.00 | 0.00 | 77 | 1018.6 |
| 20260506035745 | 63 | 205 | 0.0 | 0.0 | 0.00 | 0.00 | 0.00 | 77 | 1018.2 |
| 20260506035241 | 63 | 206 | 0.0 | 0.0 | 0.00 | 0.00 | 0.00 | 76 | 1018.6 |
| 20260506034738 | 63 | 202 | 0.0 | 0.0 | 0.00 | 0.00 | 0.00 | 76 | 1018.2 |
| 20260506034235 | 63 | 216 | 0.0 | 0.0 | 0.00 | 0.00 | 0.00 | 76 | 1018.2 |
| 20260506033732 | 63 | 216 | 0.0 | 0.0 | 0.00 | 0.00 | 0.00 | 76 | 1018.2 |
| 20260506033230 | 63 | 213 | 0.0 | 0.0 | 0.00 | 0.00 | 0.00 | 76 | 1018.2 |
| 20260506032726 | 63 | 204 | 0.0 | 0.0 | 0.00 | 0.00 | 0.00 | 76 | 1018.2 |
| 20260506032223 | 63 | 212 | 0.0 | 0.0 | 0.00 | 0.00 | 0.00 | 76 | 1017.9 |
| 20260506031720 | 63 | 212 | 0.0 | 0.0 | 0.00 | 0.00 | 0.00 | 76 | 1018.2 |
| 20260506031217 | 63 | 200 | 1.0 | 2.0 | 0.00 | 0.00 | 0.00 | 75 | 1018.2 |
| 20260506030715 | 64 | 196 | 0.0 | 1.0 | 0.00 | 0.00 | 0.00 | 75 | 1017.9 |
| 20260506030212 | 64 | 227 | 0.0 | 0.0 | 0.00 | 0.00 | 0.00 | 76 | 1017.9 |
| 20260506025709 | 64 | 204 | 0.0 | 0.0 | 0.00 | 0.00 | 0.00 | 76 | 1017.9 |
| 20260506025206 | 64 | 208 | 0.0 | 0.0 | 0.00 | 0.00 | 0.00 | 75 | 1017.9 |
| 20260506024703 | 64 | 197 | 0.0 | 0.0 | 0.00 | 0.00 | 0.00 | 75 | 1017.6 |
| 20260506024159 | 64 | 213 | 0.0 | 0.0 | 0.00 | 0.00 | 0.00 | 75 | 1017.9 |
| 20260506023655 | 64 | 207 | 0.0 | 0.0 | 0.00 | 0.00 | 0.00 | 74 | 1017.9 |
| 20260506023153 | 64 | 196 | 0.0 | 0.0 | 0.00 | 0.00 | 0.00 | 74 | 1017.9 |
| 20260506022650 | 65 | 206 | 0.0 | 0.0 | 0.00 | 0.00 | 0.00 | 74 | 1017.9 |
| 20260506022147 | 65 | 200 | 0.0 | 0.0 | 0.00 | 0.00 | 0.00 | 74 | 1017.9 |
| 20260506021645 | 65 | 175 | 0.0 | 1.0 | 0.00 | 0.00 | 0.00 | 73 | 1017.9 |
| 20260506021142 | 65 | 217 | 0.0 | 1.0 | 0.00 | 0.00 | 0.00 | 73 | 1017.9 |
| 20260506020639 | 65 | 211 | 0.0 | 0.0 | 0.00 | 0.00 | 0.00 | 72 | 1017.9 |
| 20260506020137 | 65 | 212 | 0.0 | 0.0 | 0.00 | 0.00 | 0.00 | 73 | 1017.6 |
| 20260506015634 | 65 | 211 | 0.0 | 1.0 | 0.00 | 0.00 | 0.00 | 73 | 1017.6 |
| 20260506015131 | 66 | 163 | 2.0 | 2.0 | 0.00 | 0.00 | 0.00 | 72 | 1017.9 |
| 20260506014629 | 66 | 212 | 0.0 | 0.0 | 0.00 | 0.00 | 0.00 | 71 | 1017.9 |
| 20260506014124 | 66 | 223 | 2.0 | 2.0 | 0.00 | 0.00 | 0.00 | 71 | 1017.6 |
| 20260506013623 | 66 | 0 | 0.0 | 0.0 | 0.00 | 0.00 | 0.00 | 72 | 1017.6 |
| 20260506013119 | 66 | 335 | 3.0 | 3.0 | 0.00 | 0.00 | 0.00 | 72 | 1017.9 |
| 20260506012615 | 66 | 189 | 1.0 | 1.0 | 0.00 | 0.00 | 0.00 | 71 | 1017.9 |
| 20260506012111 | 66 | 239 | 1.0 | 1.0 | 0.00 | 0.00 | 0.00 | 71 | 1017.9 |
| 20260506011609 | 66 | 217 | 2.0 | 2.0 | 0.00 | 0.00 | 0.00 | 71 | 1017.6 |
| 20260506011105 | 66 | 214 | 0.0 | 0.0 | 0.00 | 0.00 | 0.00 | 69 | 1017.9 |
| 20260506010559 | 66 | 206 | 0.0 | 0.0 | 0.00 | 0.00 | 0.00 | 70 | 1017.6 |
| 20260506010055 | 67 | 206 | 0.0 | 1.0 | 0.00 | 0.00 | 0.00 | 70 | 1017.6 |
| 20260506005553 | 67 | 205 | 0.0 | 0.0 | 0.00 | 0.00 | 0.00 | 70 | 1017.9 |
| 20260506005048 | 66 | 241 | 0.0 | 1.0 | 0.00 | 0.00 | 0.00 | 69 | 1017.9 |
| 20260506004546 | 66 | 266 | 4.0 | 6.0 | 0.00 | 0.00 | 0.00 | 69 | 1017.6 |
| 20260506004043 | 66 | 257 | 2.0 | 2.0 | 0.00 | 0.00 | 0.00 | 69 | 1017.9 |
| 20260506003539 | 68 | 2 | 1.0 | 2.0 | 0.00 | 0.00 | 0.00 | 67 | 1017.9 |
| 20260506003035 | 68 | 272 | 1.0 | 1.0 | 0.00 | 0.00 | 0.00 | 66 | 1017.6 |
| 20260506002531 | 68 | 256 | 1.0 | 2.0 | 0.00 | 0.00 | 0.00 | 67 | 1017.6 |
| 20260506002027 | 68 | 226 | 2.0 | 2.0 | 0.00 | 0.00 | 0.00 | 66 | 1017.6 |
| 20260506001524 | 68 | 274 | 2.0 | 2.0 | 0.00 | 0.00 | 0.00 | 66 | 1017.6 |
| 20260506001021 | 68 | 223 | 1.0 | 1.0 | 0.00 | 0.00 | 0.00 | 66 | 1017.6 |
| 20260506000519 | 68 | 278 | 0.0 | 1.0 | 0.00 | 0.00 | 0.00 | 67 | 1017.9 |
| 20260506000016 | 69 | 178 | 3.0 | 3.0 | 0.00 | 0.00 | 0.00 | 65 | 1017.9 |
| 20260505235514 | 69 | 187 | 1.0 | 2.0 | 0.00 | 0.00 | 0.00 | 67 | 1018.2 |
| 20260505235010 | 69 | 235 | 0.0 | 1.0 | 0.00 | 0.00 | 0.00 | 67 | 1017.9 |
| 20260505234507 | 68 | 234 | 1.0 | 2.0 | 0.00 | 0.00 | 0.00 | 67 | 1018.2 |
| 20260505234004 | 68 | 208 | 0.0 | 1.0 | 0.00 | 0.00 | 0.00 | 68 | 1018.2 |
| 20260505233502 | 69 | 223 | 1.0 | 2.0 | 0.00 | 0.00 | 0.00 | 66 | 1018.2 |
| 20260505232959 | 69 | 178 | 1.0 | 1.0 | 0.00 | 0.00 | 0.00 | 64 | 1018.6 |
| 20260505232457 | 70 | 249 | 2.0 | 6.0 | 0.00 | 0.00 | 0.00 | 65 | 1018.6 |
| 20260505231954 | 69 | 195 | 1.0 | 1.0 | 0.00 | 0.00 | 0.00 | 63 | 1018.2 |
| 20260505231451 | 70 | 220 | 0.0 | 0.0 | 0.00 | 0.00 | 0.00 | 64 | 1018.6 |
| 20260505230949 | 67 | 214 | 0.0 | 0.0 | 0.00 | 0.00 | 0.00 | 66 | 1018.2 |
| 20260505230447 | 66 | 194 | 1.0 | 1.0 | 0.00 | 0.00 | 0.00 | 68 | 1018.6 |
| 20260505225943 | 67 | 4 | 4.0 | 5.0 | 0.00 | 0.00 | 0.00 | 69 | 1018.6 |
| 20260505225440 | 67 | 262 | 2.0 | 3.0 | 0.00 | 0.00 | 0.00 | 67 | 1018.6 |
| 20260505224936 | 66 | 337 | 0.0 | 1.0 | 0.00 | 0.00 | 0.00 | 69 | 1018.6 |
| 20260505224433 | 66 | 245 | 1.0 | 2.0 | 0.00 | 0.00 | 0.00 | 68 | 1018.6 |
| 20260505223930 | 65 | 146 | 1.0 | 1.0 | 0.00 | 0.00 | 0.00 | 69 | 1018.6 |
| 20260505223427 | 65 | 257 | 2.0 | 2.0 | 0.00 | 0.00 | 0.00 | 70 | 1018.6 |
| 20260505222923 | 65 | 250 | 1.0 | 1.0 | 0.00 | 0.00 | 0.00 | 72 | 1018.6 |
| 20260505222420 | 65 | 278 | 4.0 | 5.0 | 0.00 | 0.00 | 0.00 | 71 | 1018.9 |
| 20260505221915 | 66 | 87 | 2.0 | 2.0 | 0.00 | 0.00 | 0.00 | 72 | 1018.6 |
| 20260505221413 | 65 | 236 | 1.0 | 1.0 | 0.00 | 0.00 | 0.00 | 71 | 1018.6 |
| 20260505220910 | 65 | 218 | 0.0 | 0.0 | 0.00 | 0.00 | 0.00 | 72 | 1018.6 |
| 20260505220407 | 65 | 220 | 1.0 | 1.0 | 0.00 | 0.00 | 0.00 | 72 | 1018.9 |
| 20260505215905 | 63 | 219 | 0.0 | 0.0 | 0.00 | 0.00 | 0.00 | 74 | 1019.3 |
| 20260505215402 | 63 | 265 | 2.0 | 5.0 | 0.00 | 0.00 | 0.00 | 75 | 1018.9 |
| 20260505214900 | 63 | 215 | 0.0 | 0.0 | 0.00 | 0.00 | 0.00 | 75 | 1018.9 |
| 20260505214357 | 64 | 295 | 1.0 | 2.0 | 0.00 | 0.00 | 0.00 | 74 | 1018.9 |
| 20260505213855 | 64 | 254 | 3.0 | 3.0 | 0.00 | 0.00 | 0.00 | 73 | 1018.9 |
| 20260505213352 | 63 | 237 | 2.0 | 2.0 | 0.00 | 0.00 | 0.00 | 73 | 1018.9 |
| 20260505212848 | 63 | 231 | 3.0 | 3.0 | 0.00 | 0.00 | 0.00 | 74 | 1018.9 |
| 20260505212345 | 64 | 219 | 0.0 | 1.0 | 0.00 | 0.00 | 0.00 | 74 | 1018.9 |
| 20260505211841 | 64 | 208 | 0.0 | 0.0 | 0.00 | 0.00 | 0.00 | 73 | 1018.9 |
| 20260505211339 | 64 | 247 | 1.0 | 2.0 | 0.00 | 0.00 | 0.00 | 72 | 1019.3 |
| 20260505210836 | 63 | 210 | 0.0 | 0.0 | 0.00 | 0.00 | 0.00 | 75 | 1018.9 |
| 20260505210333 | 62 | 205 | 0.0 | 1.0 | 0.00 | 0.00 | 0.00 | 75 | 1018.9 |
| 20260505205829 | 63 | 279 | 2.0 | 2.0 | 0.00 | 0.00 | 0.00 | 74 | 1019.3 |
| 20260505205328 | 63 | 304 | 3.0 | 3.0 | 0.00 | 0.00 | 0.00 | 74 | 1019.3 |
| 20260505204824 | 63 | 5 | 2.0 | 2.0 | 0.00 | 0.00 | 0.00 | 73 | 1018.9 |
| 20260505204322 | 63 | 239 | 1.0 | 2.0 | 0.00 | 0.00 | 0.00 | 75 | 1019.3 |
| 20260505203819 | 63 | 214 | 2.0 | 2.0 | 0.00 | 0.00 | 0.00 | 74 | 1019.3 |
| 20260505203316 | 63 | 302 | 3.0 | 5.0 | 0.00 | 0.00 | 0.00 | 75 | 1019.3 |
| 20260505202812 | 63 | 241 | 1.0 | 2.0 | 0.00 | 0.00 | 0.00 | 74 | 1019.3 |
| 20260505202308 | 62 | 223 | 1.0 | 1.0 | 0.00 | 0.00 | 0.00 | 75 | 1019.3 |
| 20260505201805 | 64 | 188 | 0.0 | 0.0 | 0.00 | 0.00 | 0.00 | 74 | 1019.3 |
| 20260505201302 | 64 | 223 | 0.0 | 0.0 | 0.00 | 0.00 | 0.00 | 72 | 1019.3 |
| 20260505200801 | 63 | 222 | 0.0 | 0.0 | 0.00 | 0.00 | 0.00 | 73 | 1019.3 |
| 20260505200257 | 62 | 212 | 0.0 | 0.0 | 0.00 | 0.00 | 0.00 | 75 | 1019.3 |
| 20260505195752 | 61 | 213 | 0.0 | 1.0 | 0.00 | 0.00 | 0.00 | 77 | 1019.3 |
| 20260505195250 | 61 | 180 | 2.0 | 2.0 | 0.00 | 0.00 | 0.00 | 76 | 1019.3 |
| 20260505194747 | 61 | 220 | 1.0 | 1.0 | 0.00 | 0.00 | 0.00 | 76 | 1019.3 |
| 20260505194244 | 61 | 199 | 2.0 | 2.0 | 0.00 | 0.00 | 0.00 | 77 | 1019.3 |
| 20260505193739 | 62 | 178 | 2.0 | 2.0 | 0.00 | 0.00 | 0.00 | 75 | 1019.6 |
| 20260505193237 | 62 | 205 | 1.0 | 1.0 | 0.00 | 0.00 | 0.00 | 75 | 1019.3 |
| 20260505192736 | 61 | 209 | 0.0 | 0.0 | 0.00 | 0.00 | 0.00 | 78 | 1019.6 |
| 20260505192233 | 61 | 209 | 0.0 | 1.0 | 0.00 | 0.00 | 0.00 | 77 | 1019.6 |
| 20260505191731 | 62 | 218 | 0.0 | 0.0 | 0.00 | 0.00 | 0.00 | 75 | 1019.6 |
| 20260505191229 | 62 | 228 | 0.0 | 1.0 | 0.00 | 0.00 | 0.00 | 75 | 1019.6 |
| 20260505190725 | 62 | 203 | 0.0 | 1.0 | 0.00 | 0.00 | 0.00 | 74 | 1019.6 |
| 20260505190225 | 61 | 212 | 0.0 | 0.0 | 0.00 | 0.00 | 0.00 | 76 | 1019.6 |
| 20260505185722 | 61 | 232 | 1.0 | 2.0 | 0.00 | 0.00 | 0.00 | 77 | 1019.3 |
| 20260505185218 | 62 | 203 | 1.0 | 1.0 | 0.00 | 0.00 | 0.00 | 75 | 1019.6 |
| 20260505184714 | 62 | 220 | 0.0 | 1.0 | 0.00 | 0.00 | 0.00 | 75 | 1019.3 |
| 20260505184212 | 61 | 222 | 1.0 | 1.0 | 0.00 | 0.00 | 0.00 | 76 | 1019.6 |
| 20260505183708 | 61 | 226 | 0.0 | 0.0 | 0.00 | 0.00 | 0.00 | 76 | 1019.3 |
| 20260505183206 | 60 | 214 | 1.0 | 1.0 | 0.00 | 0.00 | 0.00 | 77 | 1019.3 |
| 20260505182702 | 60 | 254 | 1.0 | 2.0 | 0.00 | 0.00 | 0.00 | 77 | 1019.3 |
| 20260505182159 | 60 | 207 | 0.0 | 0.0 | 0.00 | 0.00 | 0.00 | 77 | 1019.6 |
| 20260505181655 | 60 | 220 | 0.0 | 0.0 | 0.00 | 0.00 | 0.00 | 79 | 1019.6 |
| 20260505181153 | 61 | 223 | 2.0 | 2.0 | 0.00 | 0.00 | 0.00 | 76 | 1019.6 |
| 20260505180649 | 61 | 201 | 0.0 | 0.0 | 0.00 | 0.00 | 0.00 | 78 | 1019.3 |
| 20260505180147 | 60 | 212 | 0.0 | 1.0 | 0.00 | 0.00 | 0.00 | 78 | 1019.3 |
| 20260505175642 | 60 | 212 | 0.0 | 1.0 | 0.00 | 0.00 | 0.00 | 79 | 1019.3 |
| 20260505175139 | 59 | 206 | 0.0 | 0.0 | 0.00 | 0.00 | 0.00 | 80 | 1019.3 |
| 20260505174636 | 59 | 203 | 0.0 | 0.0 | 0.00 | 0.00 | 0.00 | 80 | 1018.9 |
| 20260505174132 | 59 | 202 | 0.0 | 1.0 | 0.00 | 0.00 | 0.00 | 80 | 1019.6 |